CST,Max TemperatureF,Mean TemperatureF,Min TemperatureF,Max Dew PointF,MeanDew PointF,Min DewpointF,Max Humidity, Mean Humidity, Min Humidity, Max Sea Level PressureIn, Mean Sea Level PressureIn, Min Sea Level PressureIn, Max VisibilityMiles, Mean VisibilityMiles, Min VisibilityMiles, Max Wind SpeedMPH, Mean Wind SpeedMPH, Max Gust SpeedMPH,PrecipitationIn, CloudCover, Events, WindDirDegrees
2011-11-1,74,55,36,43,35,29,76,55,33,30.10,30.02,29.93,10,10,10,23,12,28,0.00,0,,170
2011-11-2,64,52,39,45,39,34,86,62,37,30.09,30.02,29.94,10,7,2,28,16,36,0.89,7,Rain,26
2011-11-3,49,39,28,38,36,24,85,71,56,30.27,30.06,29.96,10,7,2,9,18,37,0.21,7,Rain,26
2011-11-4,54,40,26,39,30,23,85,66,46,30.36,30.29,30.22,10,10,9,14,7,16,0.00,0,,85
2011-11-5,57,45,33,42,36,30,82,70,57,30.22,30.11,29.96,10,9,7,24,15,33,0.00,0,,151
2011-11-6,65,57,49,50,45,39,83,70,56,30.11,29.96,29.91,10,8,6,29,16,37,0.00,4,,196
2011-11-7,61,49,37,41,34,28,77,53,29,30.23,30.18,30.13,10,10,7,13,4,15,0.10,4,Rain,58
2011-11-8,45,43,41,40,39,38,89,83,76,30.12,30.01,29.87,10,5,2,26,15,38,0.85,8,Rain,51
2011-11-9,43,38,33,40,34,26,89,76,62,30.08,29.83,29.64,10,6,0,37,18,46,1.17,6,Fog-Rain-Snow,331
2011-11-10,40,35,29,28,26,24,78,69,59,30.12,30.09,30.05,10,10,10,23,14,28,0.00,5,,268
2011-11-11,51,38,25,31,26,21,81,60,39,30.09,29.86,29.75,10,10,9,25,9,31,0.00,0,,192
2011-11-12,61,47,33,41,33,29,76,56,36,29.77,29.66,29.48,10,10,10,28,14,35,0.00,0,,185
2011-11-13,67,54,41,48,37,28,83,58,33,29.63,29.45,29.30,10,10,10,31,18,46,0.00,0,,233
2011-11-14,59,46,32,38,33,27,82,60,37,29.76,29.65,29.58,10,10,9,17,6,21,T,2,Rain,213
2011-11-15,62,46,29,34,29,21,78,54,30,29.99,29.79,29.70,10,10,9,21,11,29,0.00,0,,248
2011-11-16,43,33,23,20,15,8,75,50,24,30.22,30.14,29.99,10,10,10,24,11,30,0.00,0,,297
2011-11-17,40,29,18,17,14,11,73,54,34,30.31,30.23,30.14,10,10,10,17,9,23,0.00,0,,246
2011-11-18,56,43,30,22,19,16,53,39,24,30.10,29.90,29.81,10,10,10,35,20,44,0.00,1,,190
2011-11-19,56,47,37,43,33,19,79,58,37,30.02,29.81,29.65,10,10,7,28,17,33,0.00,7,,217
2011-11-20,40,37,33,29,28,27,82,73,64,30.32,30.25,30.07,10,10,10,12,9,14,0.00,7,,23
2011-11-21,49,38,26,35,30,22,85,71,56,30.32,30.25,30.17,10,8,4,16,9,20,0.00,2,,72
2011-11-22,41,38,35,37,35,33,92,86,79,30.17,30.04,29.93,5,3,1,16,10,20,0.20,8,Rain,25
2011-11-23,48,38,28,37,32,25,92,77,61,30.27,30.21,30.12,6,3,2,14,6,17,0.00,3,,253
2011-11-24,57,49,41,43,40,37,89,73,57,30.22,30.12,29.98,10,6,2,24,15,33,0.00,4,,193
2011-11-25,53,49,44,40,38,37,76,68,59,29.98,29.94,29.90,10,10,10,22,13,30,0.00,0,,192
2011-11-26,56,48,39,,,,,,,,,,,,,24,15,35,0.50,,,
2011-11-27,40,37,33,,,,,,,,,,,,,25,14,30,0.00,,,
2011-11-28,34,29,24,,,,,,,,,,,,,14,7,17,0.00,,,
2011-11-29,41,33,25,25,20,17,75,60,44,30.14,30.11,30.09,10,10,10,25,14,35,0.00,0,,340
2011-11-30,43,30,16,20,16,10,80,55,29,30.16,30.12,30.08,10,10,10,13,7,15,0.00,0,,221